"Pseudo-MPEC" for ZGBD5CC

Created 2018 Apr 19 7:18:12 UT using Find_Orb

Click here for an explanation of pseudo-MPECs

 
 Astrometry: 
     ZGBD5CC  C2018 04 12.25288 12 20 06.20 +10 17 42.5          20.1 GUNEOCPG96
     ZGBD5CC  C2018 04 12.26320 12 20 08.87 +10 21 45.2          20.3 GUNEOCPG96
     ZGBD5CC  C2018 04 12.26837 12 20 10.22 +10 23 48.3          20.6 GUNEOCPG96

Station data:
(G96) Mt. Lemmon Survey  (N32.442754 W110.788720)  US/Arizona.  Observers E.
   J. Christensen, A. R. Gibbs, A. D. Grauer, R. E. Hill, J. A. Johnson, R.
   A. Kowalski, S. M. Larson, F. C. Shelly. 1.5-m reflector + CCD.

Orbital elements:  ZGBD5CC
   Perihelion 2018 Aug 3.346265 +/- 50.4 TT =  8:18:37 (JD 2458333.846265)
Epoch 2018 Apr 12.0 TT = JDT 2458220.5   Earth MOID: 0.0204   AutoNEOCP
M 251.62926 +/- 90                  (J2000 ecliptic)
n   0.95610329 +/- 0.495            Peri.  110.33720 +/- 110
a   1.02046827 +/- 0.352            Node   199.99864 +/- 38
e   0.0054276 +/- 0.274             Incl.    8.64459 +/- 17
P   1.03/376.52d           H 27.8   G  0.15   U 12.3  SR
q 1.01492950 +/- 0.264    Q 1.02600704 +/- 21.9
From 3 observations 2018 Apr. 12 (22.3 min); mean residual 0".36
Residuals in arcseconds: 
180412 G96  .03+  .24+    180412 G96  .08-  .71-    180412 G96  .06+  .47+    

Ephemerides (geocentric):
Date (UTC) HH   RA              Dec         delta   r     elong  mag " sig PA
---- -- -- --  ------------   ------------  ------ ------ -----  --- ---- ---
2018 04 19 07  13 08 15.902   +44 36 29.33  .03052 1.0216 123.6 22.3  39d 177
2018 04 19 08  13 08 32.894   +44 44 11.94  .03060 1.0216 123.5 22.3  39d 177
2018 04 19 09  13 08 49.879   +44 51 51.93  .03067 1.0215 123.3 22.3  39d 177
2018 04 19 10  13 09 06.859   +44 59 29.31  .03075 1.0215 123.2 22.3  39d 177
2018 04 19 11  13 09 23.833   +45 07 04.09  .03083 1.0215 123.1 22.3  39d 177
2018 04 19 12  13 09 40.801   +45 14 36.29  .03091 1.0215 122.9 22.3  39d 177
2018 04 19 13  13 09 57.764   +45 22 05.93  .03098 1.0215 122.8 22.3  39d 177
2018 04 19 14  13 10 14.720   +45 29 33.02  .03106 1.0215 122.7 22.4  39d 177
2018 04 19 15  13 10 31.669   +45 36 57.56  .03114 1.0215 122.5 22.4  39d 177
2018 04 19 16  13 10 48.613   +45 44 19.58  .03122 1.0215 122.4 22.4  39d 178
2018 04 19 17  13 11 05.550   +45 51 39.10  .03130 1.0215 122.3 22.4  39d 178
2018 04 19 18  13 11 22.481   +45 58 56.11  .03137 1.0215 122.1 22.4  39d 178
2018 04 19 19  13 11 39.406   +46 06 10.64  .03145 1.0215 122.0 22.4  39d 178
2018 04 19 20  13 11 56.324   +46 13 22.71  .03153 1.0215 121.9 22.4  39d 178
2018 04 19 21  13 12 13.235   +46 20 32.32  .03161 1.0215 121.8 22.4  39d 178
2018 04 19 22  13 12 30.140   +46 27 39.48  .03169 1.0215 121.6 22.4  39d 178
2018 04 19 23  13 12 47.038   +46 34 44.22  .03177 1.0215 121.5 22.4  39d 178
2018 04 20 00  13 13 03.930   +46 41 46.55  .03185 1.0215 121.4 22.4  39d 178
2018 04 20 01  13 13 20.814   +46 48 46.48  .03193 1.0215 121.2 22.5  39d 178
2018 04 20 02  13 13 37.692   +46 55 44.02  .03201 1.0215 121.1 22.5  39d 178
2018 04 20 03  13 13 54.562   +47 02 39.19  .03209 1.0215 121.0 22.5  39d 178
2018 04 20 04  13 14 11.426   +47 09 32.00  .03217 1.0215 120.9 22.5  39d 178
2018 04 20 05  13 14 28.282   +47 16 22.47  .03225 1.0215 120.8 22.5  39d 178
2018 04 20 06  13 14 45.131   +47 23 10.60  .03233 1.0215 120.6 22.5  39d 178
2018 04 20 07  13 15 01.973   +47 29 56.42  .03241 1.0215 120.5 22.5  39d 178
2018 04 20 08  13 15 18.808   +47 36 39.93  .03249 1.0215 120.4 22.5  39d 178
2018 04 20 09  13 15 35.635   +47 43 21.16  .03257 1.0215 120.3 22.5  39d 178
2018 04 20 10  13 15 52.455   +47 50 00.10  .03265 1.0214 120.2 22.5  39d 178
2018 04 20 11  13 16 09.267   +47 56 36.78  .03273 1.0214 120.0 22.5  39d 178
2018 04 20 12  13 16 26.072   +48 03 11.21  .03281 1.0214 119.9 22.5  39d 178
2018 04 20 13  13 16 42.869   +48 09 43.40  .03289 1.0214 119.8 22.6  39d 178
2018 04 20 14  13 16 59.658   +48 16 13.36  .03297 1.0214 119.7 22.6  38d 178
2018 04 20 15  13 17 16.439   +48 22 41.12  .03305 1.0214 119.6 22.6  38d 178
2018 04 20 16  13 17 33.213   +48 29 06.67  .03313 1.0214 119.4 22.6  38d 178
2018 04 20 17  13 17 49.978   +48 35 30.04  .03322 1.0214 119.3 22.6  38d 178
2018 04 20 18  13 18 06.736   +48 41 51.24  .03330 1.0214 119.2 22.6  38d 178
2018 04 20 19  13 18 23.486   +48 48 10.28  .03338 1.0214 119.1 22.6  38d 178
2018 04 20 20  13 18 40.227   +48 54 27.17  .03346 1.0214 119.0 22.6  38d 178
2018 04 20 21  13 18 56.960   +49 00 41.93  .03354 1.0214 118.9 22.6  38d 178
2018 04 20 22  13 19 13.685   +49 06 54.56  .03363 1.0214 118.8 22.6  38d 178
2018 04 20 23  13 19 30.402   +49 13 05.09  .03371 1.0214 118.6 22.6  38d 178
2018 04 21 00  13 19 47.110   +49 19 13.52  .03379 1.0214 118.5 22.6  38d 178
2018 04 21 01  13 20 03.810   +49 25 19.87  .03387 1.0214 118.4 22.7  38d 178
2018 04 21 02  13 20 20.502   +49 31 24.15  .03396 1.0214 118.3 22.7  38d 178
2018 04 21 03  13 20 37.184   +49 37 26.37  .03404 1.0214 118.2 22.7  38d 178
2018 04 21 04  13 20 53.858   +49 43 26.55  .03412 1.0214 118.1 22.7  38d 178
2018 04 21 05  13 21 10.524   +49 49 24.69  .03421 1.0214 118.0 22.7  38d 178
2018 04 21 06  13 21 27.180   +49 55 20.81  .03429 1.0214 117.9 22.7  38d 178